Time,TemperatureF,DewpointF,PressureIn,WindDirection,WindDirectionDegrees,WindSpeedMPH,WindSpeedGustMPH,Humidity,HourlyPrecipIn,Conditions,Clouds,dailyrainin,SoftwareType,DateUTC
2013-01-16 00:01:00,18.0,15.0,30.21,North,10,0.0,2.0,86,0.00,,,0.00,weatherlink.com 1.10,2013-01-16 06:01:00,
2013-01-16 00:16:00,18.1,15.0,30.21,North,10,0.0,2.0,86,0.00,,,0.00,weatherlink.com 1.10,2013-01-16 06:16:00,
2013-01-16 00:31:00,18.1,15.0,30.21,North,10,0.0,2.0,86,0.00,,,0.00,weatherlink.com 1.10,2013-01-16 06:31:00,
2013-01-16 00:46:00,18.1,14.0,30.21,North,10,1.0,2.0,85,0.00,,,0.00,weatherlink.com 1.10,2013-01-16 06:46:00,
2013-01-16 01:01:00,18.1,14.0,30.20,North,9,1.0,2.0,85,0.00,,,0.00,weatherlink.com 1.10,2013-01-16 07:01:00,
2013-01-16 01:17:00,18.1,14.0,30.21,West,265,2.0,4.0,84,0.00,,,0.00,weatherlink.com 1.10,2013-01-16 07:17:00,
2013-01-16 01:31:00,18.1,14.0,30.20,WNW,283,2.0,4.0,84,0.00,,,0.00,weatherlink.com 1.10,2013-01-16 07:31:00,
2013-01-16 01:46:00,18.1,14.0,30.20,West,281,1.0,4.0,84,0.00,,,0.00,weatherlink.com 1.10,2013-01-16 07:46:00,
2013-01-16 02:01:00,17.8,14.0,30.20,West,281,1.0,3.0,83,0.00,,,0.00,weatherlink.com 1.10,2013-01-16 08:01:00,
2013-01-16 02:16:00,17.9,14.0,30.21,West,281,1.0,2.0,83,0.00,,,0.00,weatherlink.com 1.10,2013-01-16 08:16:00,
2013-01-16 02:32:00,17.5,14.0,30.20,West,281,1.0,3.0,85,0.00,,,0.00,weatherlink.com 1.10,2013-01-16 08:32:00,
2013-01-16 02:47:00,17.4,14.0,30.20,West,281,1.0,3.0,85,0.00,,,0.00,weatherlink.com 1.10,2013-01-16 08:47:00,
2013-01-16 03:02:00,17.3,14.0,30.20,West,281,1.0,2.0,85,0.00,,,0.00,weatherlink.com 1.10,2013-01-16 09:02:00,
2013-01-16 03:17:00,17.2,13.0,30.19,West,281,1.0,2.0,84,0.00,,,0.00,weatherlink.com 1.10,2013-01-16 09:17:00,
2013-01-16 03:32:00,16.9,13.0,30.18,West,281,1.0,3.0,85,0.00,,,0.00,weatherlink.com 1.10,2013-01-16 09:32:00,
2013-01-16 03:47:00,17.4,13.0,30.18,West,281,1.0,2.0,84,0.00,,,0.00,weatherlink.com 1.10,2013-01-16 09:47:00,
2013-01-16 04:02:00,17.0,13.0,30.17,West,281,1.0,2.0,84,0.00,,,0.00,weatherlink.com 1.10,2013-01-16 10:02:00,
2013-01-16 04:17:00,16.8,13.0,30.16,West,281,0.0,2.0,86,0.00,,,0.00,weatherlink.com 1.10,2013-01-16 10:17:00,
2013-01-16 04:32:00,16.5,13.0,30.16,West,281,2.0,2.0,85,0.00,,,0.00,weatherlink.com 1.10,2013-01-16 10:32:00,
2013-01-16 04:47:00,16.3,13.0,30.15,West,281,0.0,2.0,86,0.00,,,0.00,weatherlink.com 1.10,2013-01-16 10:47:00,
2013-01-16 05:02:00,15.8,12.0,30.14,West,281,0.0,2.0,86,0.00,,,0.00,weatherlink.com 1.10,2013-01-16 11:02:00,
2013-01-16 05:17:00,15.7,12.0,30.14,West,281,0.0,2.0,86,0.00,,,0.00,weatherlink.com 1.10,2013-01-16 11:17:00,
2013-01-16 05:32:00,15.3,12.0,30.14,West,281,1.0,2.0,87,0.00,,,0.00,weatherlink.com 1.10,2013-01-16 11:32:00,
2013-01-16 05:47:00,15.5,12.0,30.14,West,281,2.0,2.0,87,0.00,,,0.00,weatherlink.com 1.10,2013-01-16 11:47:00,
2013-01-16 06:02:00,15.9,13.0,30.15,West,260,2.0,3.0,86,0.00,,,0.00,weatherlink.com 1.10,2013-01-16 12:02:00,
2013-01-16 06:17:00,16.0,12.0,30.15,WSW,246,2.0,4.0,85,0.00,,,0.00,weatherlink.com 1.10,2013-01-16 12:17:00,
2013-01-16 06:32:00,16.1,12.0,30.16,West,263,3.0,4.0,84,0.00,,,0.00,weatherlink.com 1.10,2013-01-16 12:32:00,
2013-01-16 06:47:00,16.4,12.0,30.16,West,263,0.0,3.0,83,0.00,,,0.00,weatherlink.com 1.10,2013-01-16 12:47:00,
2013-01-16 07:02:00,16.4,12.0,30.16,West,263,5.0,5.0,83,0.00,,,0.00,weatherlink.com 1.10,2013-01-16 13:02:00,
2013-01-16 07:17:00,17.1,13.0,30.15,West,261,1.0,6.0,82,0.00,,,0.00,weatherlink.com 1.10,2013-01-16 13:17:00,
2013-01-16 07:32:00,17.0,12.0,30.16,SSW,205,2.0,7.0,82,0.00,,,0.00,weatherlink.com 1.10,2013-01-16 13:32:00,
2013-01-16 07:47:00,16.5,12.0,30.15,SSW,201,2.0,4.0,83,0.00,,,0.00,weatherlink.com 1.10,2013-01-16 13:47:00,
2013-01-16 08:02:00,16.8,13.0,30.15,SSW,205,0.0,6.0,84,0.00,,,0.00,weatherlink.com 1.10,2013-01-16 14:02:00,
2013-01-16 08:17:00,17.6,14.0,30.15,SSW,199,4.0,7.0,84,0.00,,,0.00,weatherlink.com 1.10,2013-01-16 14:17:00,
2013-01-16 08:32:00,18.9,14.0,30.15,South,179,1.0,7.0,82,0.00,,,0.00,weatherlink.com 1.10,2013-01-16 14:32:00,
2013-01-16 08:47:00,20.4,15.0,30.16,South,190,5.0,7.0,81,0.00,,,0.00,weatherlink.com 1.10,2013-01-16 14:47:00,
2013-01-16 09:02:00,21.1,16.0,30.16,SW,217,5.0,7.0,79,0.00,,,0.00,weatherlink.com 1.10,2013-01-16 15:02:00,
2013-01-16 09:17:00,22.4,17.0,30.14,South,169,2.0,11.0,78,0.00,,,0.00,weatherlink.com 1.10,2013-01-16 15:17:00,
2013-01-16 09:33:00,23.5,17.0,30.14,SSW,201,6.0,10.0,77,0.00,,,0.00,weatherlink.com 1.10,2013-01-16 15:33:00,
2013-01-16 09:48:00,25.2,18.0,30.15,WSW,242,6.0,8.0,74,0.00,,,0.00,weatherlink.com 1.10,2013-01-16 15:48:00,
2013-01-16 10:03:00,26.4,19.0,30.15,SW,225,3.0,9.0,74,0.00,,,0.00,weatherlink.com 1.10,2013-01-16 16:03:00,
2013-01-16 10:18:00,27.8,21.0,30.15,SW,216,7.0,9.0,74,0.00,,,0.00,weatherlink.com 1.10,2013-01-16 16:18:00,
2013-01-16 10:33:00,29.4,20.0,30.15,WSW,237,2.0,9.0,68,0.00,,,0.00,weatherlink.com 1.10,2013-01-16 16:33:00,
2013-01-16 10:48:00,30.8,21.0,30.14,SSW,205,7.0,14.0,66,0.00,,,0.00,weatherlink.com 1.10,2013-01-16 16:48:00,
2013-01-16 11:03:00,31.3,21.0,30.14,WSW,237,3.0,12.0,66,0.00,,,0.00,weatherlink.com 1.10,2013-01-16 17:03:00,
2013-01-16 11:18:00,31.8,21.0,30.13,SW,216,10.0,14.0,65,0.00,,,0.00,weatherlink.com 1.10,2013-01-16 17:18:00,
2013-01-16 11:33:00,33.0,22.0,30.12,West,272,7.0,15.0,64,0.00,,,0.00,weatherlink.com 1.10,2013-01-16 17:33:00,
2013-01-16 11:48:00,33.6,21.0,30.11,SSW,202,7.0,13.0,60,0.00,,,0.00,weatherlink.com 1.10,2013-01-16 17:48:00,
2013-01-16 12:03:00,34.6,22.0,30.10,West,261,9.0,14.0,60,0.00,,,0.00,weatherlink.com 1.10,2013-01-16 18:03:00,
2013-01-16 12:18:00,35.7,23.0,30.09,WSW,242,5.0,14.0,60,0.00,,,0.00,weatherlink.com 1.10,2013-01-16 18:18:00,
2013-01-16 12:33:00,36.2,22.0,30.09,West,269,9.0,15.0,56,0.00,,,0.00,weatherlink.com 1.10,2013-01-16 18:33:00,
2013-01-16 12:48:00,37.2,23.0,30.08,SW,236,11.0,15.0,56,0.00,,,0.00,weatherlink.com 1.10,2013-01-16 18:48:00,
2013-01-16 13:03:00,37.8,23.0,30.08,SSW,205,8.0,12.0,56,0.00,,,0.00,weatherlink.com 1.10,2013-01-16 19:03:00,
2013-01-16 13:19:00,38.3,21.0,30.07,SW,228,4.0,14.0,51,0.00,,,0.00,weatherlink.com 1.10,2013-01-16 19:19:00,
2013-01-16 13:34:00,38.3,23.0,30.07,WNW,282,6.0,16.0,54,0.00,,,0.00,weatherlink.com 1.10,2013-01-16 19:34:00,
2013-01-16 13:49:00,38.7,21.0,30.07,WSW,241,6.0,17.0,49,0.00,,,0.00,weatherlink.com 1.10,2013-01-16 19:49:00,
2013-01-16 14:04:00,38.8,21.0,30.06,SSW,200,5.0,19.0,50,0.00,,,0.00,weatherlink.com 1.10,2013-01-16 20:04:00,
2013-01-16 14:19:00,39.2,21.0,30.07,SW,223,8.0,15.0,49,0.00,,,0.00,weatherlink.com 1.10,2013-01-16 20:19:00,
2013-01-16 14:34:00,39.6,22.0,30.07,WSW,243,12.0,14.0,50,0.00,,,0.00,weatherlink.com 1.10,2013-01-16 20:34:00,
2013-01-16 14:49:00,39.9,21.0,30.06,SW,225,10.0,15.0,48,0.00,,,0.00,weatherlink.com 1.10,2013-01-16 20:49:00,
2013-01-16 15:04:00,40.2,22.0,30.06,WSW,238,10.0,13.0,49,0.01,,,0.01,weatherlink.com 1.10,2013-01-16 21:04:00,
2013-01-16 15:19:00,40.4,23.0,30.06,SSW,205,8.0,14.0,51,0.01,,,0.01,weatherlink.com 1.10,2013-01-16 21:19:00,
2013-01-16 15:34:00,40.2,22.0,30.07,SW,223,4.0,13.0,49,0.02,,,0.02,weatherlink.com 1.10,2013-01-16 21:34:00,
2013-01-16 15:49:00,40.6,22.0,30.07,SW,229,4.0,10.0,48,0.02,,,0.02,weatherlink.com 1.10,2013-01-16 21:49:00,
2013-01-16 16:04:00,40.4,23.0,30.07,WSW,241,5.0,8.0,50,0.01,,,0.02,weatherlink.com 1.10,2013-01-16 22:04:00,
2013-01-16 16:19:00,40.2,22.0,30.07,SW,223,7.0,12.0,49,0.01,,,0.02,weatherlink.com 1.10,2013-01-16 22:19:00,
2013-01-16 16:34:00,39.7,22.0,30.09,SW,226,4.0,9.0,50,0.00,,,0.02,weatherlink.com 1.10,2013-01-16 22:34:00,
2013-01-16 16:49:00,39.3,22.0,30.09,SSW,211,7.0,9.0,51,0.00,,,0.02,weatherlink.com 1.10,2013-01-16 22:49:00,
2013-01-16 17:04:00,39.1,22.0,30.09,SW,236,7.0,9.0,51,0.00,,,0.02,weatherlink.com 1.10,2013-01-16 23:04:00,
2013-01-16 17:19:00,38.8,22.0,30.10,SW,229,5.0,8.0,52,0.00,,,0.02,weatherlink.com 1.10,2013-01-16 23:19:00,
2013-01-16 17:34:00,38.2,22.0,30.10,SW,225,6.0,9.0,53,0.00,,,0.02,weatherlink.com 1.10,2013-01-16 23:34:00,
2013-01-16 17:49:00,37.8,22.0,30.11,WSW,252,5.0,10.0,54,0.00,,,0.02,weatherlink.com 1.10,2013-01-16 23:49:00,
2013-01-16 18:04:00,37.2,23.0,30.11,WSW,237,1.0,7.0,56,0.00,,,0.02,weatherlink.com 1.10,2013-01-17 00:04:00,
2013-01-16 18:19:00,36.4,23.0,30.11,West,269,4.0,9.0,58,0.00,,,0.02,weatherlink.com 1.10,2013-01-17 00:19:00,
2013-01-16 18:34:00,35.8,23.0,30.12,West,267,4.0,8.0,59,0.00,,,0.02,weatherlink.com 1.10,2013-01-17 00:34:00,
2013-01-16 18:49:00,35.6,23.0,30.12,West,271,5.0,8.0,60,0.00,,,0.02,weatherlink.com 1.10,2013-01-17 00:49:00,
2013-01-16 19:04:00,35.6,23.0,30.13,WSW,252,5.0,6.0,60,0.00,,,0.02,weatherlink.com 1.10,2013-01-17 01:04:00,
2013-01-16 19:19:00,35.5,23.0,30.13,SW,230,3.0,5.0,61,0.00,,,0.02,weatherlink.com 1.10,2013-01-17 01:19:00,
2013-01-16 19:34:00,35.4,23.0,30.13,SW,217,5.0,9.0,61,0.00,,,0.02,weatherlink.com 1.10,2013-01-17 01:34:00,
2013-01-16 19:49:00,35.2,23.0,30.13,SW,227,3.0,7.0,62,0.00,,,0.02,weatherlink.com 1.10,2013-01-17 01:49:00,
2013-01-16 20:04:00,34.1,23.0,30.13,West,279,3.0,8.0,64,0.00,,,0.02,weatherlink.com 1.10,2013-01-17 02:04:00,
2013-01-16 20:19:00,33.4,23.0,30.13,WSW,257,2.0,5.0,66,0.00,,,0.02,weatherlink.com 1.10,2013-01-17 02:19:00,
2013-01-16 20:34:00,33.4,23.0,30.13,WSW,257,2.0,4.0,66,0.00,,,0.02,weatherlink.com 1.10,2013-01-17 02:34:00,
2013-01-16 20:49:00,33.0,23.0,30.14,WSW,257,1.0,4.0,66,0.00,,,0.02,weatherlink.com 1.10,2013-01-17 02:49:00,
2013-01-16 21:04:00,32.9,23.0,30.14,WSW,257,2.0,4.0,66,0.00,,,0.02,weatherlink.com 1.10,2013-01-17 03:04:00,
2013-01-16 21:19:00,32.7,23.0,30.14,WSW,257,3.0,3.0,67,0.00,,,0.02,weatherlink.com 1.10,2013-01-17 03:19:00,
2013-01-16 21:34:00,32.0,23.0,30.13,WSW,257,3.0,5.0,69,0.00,,,0.02,weatherlink.com 1.10,2013-01-17 03:34:00,
2013-01-16 21:49:00,31.7,23.0,30.14,West,261,2.0,6.0,70,0.00,,,0.02,weatherlink.com 1.10,2013-01-17 03:49:00,
2013-01-16 22:04:00,31.6,23.0,30.14,West,261,2.0,4.0,71,0.00,,,0.02,weatherlink.com 1.10,2013-01-17 04:04:00,
2013-01-16 22:19:00,32.1,23.0,30.15,West,261,2.0,3.0,70,0.00,,,0.02,weatherlink.com 1.10,2013-01-17 04:19:00,
2013-01-16 22:34:00,32.2,23.0,30.15,West,261,2.0,3.0,70,0.00,,,0.02,weatherlink.com 1.10,2013-01-17 04:34:00,
2013-01-16 22:49:00,32.0,23.0,30.15,West,261,2.0,3.0,70,0.00,,,0.02,weatherlink.com 1.10,2013-01-17 04:49:00,
2013-01-16 23:04:00,31.7,23.0,30.15,West,261,1.0,3.0,71,0.00,,,0.02,weatherlink.com 1.10,2013-01-17 05:04:00,
2013-01-16 23:19:00,31.0,23.0,30.15,West,261,0.0,3.0,73,0.00,,,0.02,weatherlink.com 1.10,2013-01-17 05:19:00,
2013-01-16 23:34:00,29.3,23.0,30.16,West,261,0.0,2.0,76,0.00,,,0.02,weatherlink.com 1.10,2013-01-17 05:34:00,
2013-01-16 23:49:00,28.5,22.0,30.16,West,261,3.0,3.0,78,0.00,,,0.02,weatherlink.com 1.10,2013-01-17 05:49:00,